• In Moldova, Republic
  • List of Countries
  • For 7 days
  • Water Temperature
  • Satellite Maps
  • Weather Map
  • Weather Widgets
  • user-avatar
    Login

    Hourly Weather Eisenstadt

    Today, 23 September, Sunday

    Time Temperature Precipitation Wind Pressure Humidity
    00:00 +12°C° 0 mm 1 mps 726 mmHg 72%
    01:00 +12°C° 0 mm 1 mps 726 mmHg 73%
    02:00 +12°C° 0.1 mm 1 mps 726 mmHg 73%
    03:00 +12°C° 0.1 mm 1 mps 726 mmHg 74%
    04:00 +12°C° 0.1 mm 1 mps 726 mmHg 74%
    05:00 +12°C° 0.1 mm 1 mps 725 mmHg 75%
    06:00 +12°C° 0.1 mm 1 mps 725 mmHg 76%
    07:00 +12°C° 0 mm 1 mps 725 mmHg 76%
    08:00 +12°C° 0.1 mm 2 mps 725 mmHg 75%
    09:00 +12°C° 0.1 mm 2 mps 725 mmHg 74%
    10:00 +12°C° 0.1 mm 3 mps 725 mmHg 74%
    11:00 +12°C° 0.1 mm 3 mps 725 mmHg 72%
    12:00 +13°C° 0.1 mm 3 mps 724 mmHg 70%
    13:00 +14°C° 0.1 mm 3 mps 724 mmHg 69%
    14:00 +16°C° 0 mm 3 mps 723 mmHg 66%
    15:00 +17°C° 0 mm 3 mps 722 mmHg 64%
    16:00 +19°C° 0 mm 3 mps 722 mmHg 62%
    17:00 +18°C° 0 mm 3 mps 721 mmHg 65%
    18:00 +18°C° 0 mm 3 mps 720 mmHg 69%
    19:00 +17°C° 0 mm 3 mps 719 mmHg 73%
    20:00 +17°C° 0.1 mm 4 mps 718 mmHg 75%
    21:00 +17°C° 0.1 mm 4 mps 718 mmHg 77%
    22:00 +17°C° 0.1 mm 4 mps 717 mmHg 80%
    23:00 +16°C° 0.5 mm 5 mps 717 mmHg 81%

    Tomorrow, 24 September, Monday

    Time Temperature Precipitation Wind Pressure Humidity
    00:00 +16°C° 0.5 mm 6 mps 718 mmHg 82%
    01:00 +16°C° 0.5 mm 6 mps 718 mmHg 83%
    02:00 +14°C° 0.7 mm 6 mps 719 mmHg 81%
    03:00 +13°C° 0.7 mm 6 mps 720 mmHg 80%
    04:00 +10°C° 0.7 mm 7 mps 721 mmHg 79%
    05:00 +9°C° 0.6 mm 7 mps 723 mmHg 79%
    06:00 +9°C° 0.6 mm 6 mps 724 mmHg 79%
    07:00 +8°C° 0.6 mm 6 mps 725 mmHg 78%
    08:00 +9°C° 0 mm 7 mps 726 mmHg 71%
    09:00 +10°C° 0 mm 7 mps 727 mmHg 63%
    10:00 +10°C° 0 mm 8 mps 729 mmHg 56%
    11:00 +11°C° 0 mm 8 mps 729 mmHg 51%
    12:00 +12°C° 0 mm 7 mps 729 mmHg 47%
    13:00 +12°C° 0 mm 7 mps 729 mmHg 42%
    14:00 +12°C° 0 mm 7 mps 729 mmHg 42%
    15:00 +13°C° 0 mm 6 mps 730 mmHg 43%
    16:00 +11°C° 0 mm 6 mps 730 mmHg 43%
    17:00 +10°C° 0 mm 5 mps 730 mmHg 48%
    18:00 +10°C° 0 mm 4 mps 731 mmHg 53%
    19:00 +8°C° 0 mm 3 mps 731 mmHg 59%
    20:00 +8°C° 0 mm 3 mps 732 mmHg 62%
    21:00 +7°C° 0 mm 3 mps 732 mmHg 64%
    22:00 +7°C° 0 mm 3 mps 732 mmHg 67%
    23:00 +5°C° 0 mm 3 mps 733 mmHg 69%

    Day after tomorrow, 25 September, Tuesday

    Time Temperature Precipitation Wind Pressure Humidity
    00:00 +5°C° 0 mm 3 mps 733 mmHg 71%
    01:00 +5°C° 0 mm 3 mps 733 mmHg 73%
    02:00 +4°C° 0 mm 3 mps 733 mmHg 74%
    03:00 +4°C° 0 mm 3 mps 733 mmHg 76%
    04:00 +4°C° 0 mm 3 mps 734 mmHg 77%
    05:00 +4°C° 0 mm 3 mps 734 mmHg 75%
    06:00 +4°C° 0 mm 3 mps 734 mmHg 74%
    07:00 +5°C° 0 mm 3 mps 735 mmHg 72%
    08:00 +6°C° 0 mm 4 mps 735 mmHg 63%
    09:00 +8°C° 0 mm 5 mps 735 mmHg 54%
    10:00 +9°C° 0 mm 5 mps 736 mmHg 44%
    11:00 +10°C° 0 mm 5 mps 736 mmHg 42%
    12:00 +12°C° 0 mm 5 mps 736 mmHg 39%
    13:00 +12°C° 0 mm 5 mps 735 mmHg 36%
    14:00 +12°C° 0 mm 5 mps 735 mmHg 37%
    15:00 +12°C° 0 mm 5 mps 735 mmHg 38%
    16:00 +12°C° 0 mm 4 mps 735 mmHg 38%
    17:00 +10°C° 0 mm 4 mps 735 mmHg 44%
    18:00 +8°C° 0 mm 3 mps 736 mmHg 51%
    19:00 +7°C° 0 mm 2 mps 736 mmHg 57%
    20:00 +6°C° 0 mm 2 mps 736 mmHg 59%
    21:00 +6°C° 0 mm 2 mps 737 mmHg 62%
    22:00 +5°C° 0 mm 2 mps 737 mmHg 64%
    23:00 +5°C° 0 mm 2 mps 737 mmHg 65%

    26 September, Wednesday

    Time Temperature Precipitation Wind Pressure Humidity
    00:00 +5°C° 0 mm 1 mps 737 mmHg 67%
    01:00 +5°C° 0 mm 1 mps 737 mmHg 68%
    02:00 +5°C° 0 mm 1 mps 737 mmHg 69%
    03:00 +4°C° 0 mm 1 mps 736 mmHg 70%
    04:00 +4°C° 0 mm 1 mps 736 mmHg 71%
    05:00 +5°C° 0 mm 1 mps 736 mmHg 69%
    06:00 +5°C° 0 mm 1 mps 736 mmHg 67%
    07:00 +6°C° 0 mm 1 mps 736 mmHg 65%
    08:00 +8°C° 0 mm 1 mps 736 mmHg 58%
    09:00 +10°C° 0 mm 1 mps 736 mmHg 50%
    10:00 +13°C° 0 mm 2 mps 736 mmHg 43%
    11:00 +14°C° 0 mm 2 mps 736 mmHg 40%
    12:00 +14°C° 0 mm 3 mps 736 mmHg 36%
    13:00 +16°C° 0 mm 3 mps 735 mmHg 33%
    14:00 +16°C° 0 mm 3 mps 735 mmHg 34%
    15:00 +16°C° 0 mm 3 mps 734 mmHg 35%
    16:00 +16°C° 0 mm 3 mps 734 mmHg 37%
    17:00 +13°C° 0 mm 3 mps 734 mmHg 42%
    18:00 +12°C° 0 mm 2 mps 734 mmHg 48%
    19:00 +9°C° 0 mm 2 mps 733 mmHg 54%
    20:00 +8°C° 0 mm 2 mps 733 mmHg 55%
    21:00 +8°C° 0 mm 2 mps 733 mmHg 57%
    22:00 +7°C° 0 mm 2 mps 733 mmHg 58%
    23:00 +7°C° 0 mm 2 mps 733 mmHg 59%

    27 September, Thursday

    Time Temperature Precipitation Wind Pressure Humidity
    00:00 +7°C° 0 mm 2 mps 733 mmHg 59%
    01:00 +7°C° 0 mm 2 mps 733 mmHg 59%
    02:00 +8°C° 0 mm 1 mps 733 mmHg 60%
    03:00 +8°C° 0 mm 1 mps 733 mmHg 60%
    04:00 +8°C° 0 mm 1 mps 732 mmHg 60%
    05:00 +8°C° 0 mm 1 mps 732 mmHg 59%
    06:00 +9°C° 0 mm 1 mps 733 mmHg 58%
    07:00 +10°C° 0 mm 1 mps 733 mmHg 57%
    08:00 +12°C° 0 mm 1 mps 733 mmHg 50%
    09:00 +15°C° 0 mm 1 mps 733 mmHg 44%
    10:00 +19°C° 0 mm 1 mps 733 mmHg 37%
    11:00 +20°C° 0 mm 1 mps 732 mmHg 34%
    12:00 +21°C° 0 mm 1 mps 732 mmHg 32%
    13:00 +23°C° 0 mm 1 mps 732 mmHg 30%
    14:00 +22°C° 0 mm 1 mps 731 mmHg 32%
    15:00 +22°C° 0 mm 1 mps 731 mmHg 34%
    16:00 +22°C° 0 mm 1 mps 730 mmHg 36%
    17:00 +20°C° 0 mm 1 mps 730 mmHg 41%
    18:00 +16°C° 0 mm 1 mps 730 mmHg 46%
    19:00 +14°C° 0 mm 1 mps 729 mmHg 51%
    20:00 +14°C° 0 mm 1 mps 729 mmHg 53%
    21:00 +13°C° 0 mm 1 mps 729 mmHg 54%
    22:00 +13°C° 0 mm 1 mps 729 mmHg 56%
    23:00 +12°C° 0 mm 1 mps 728 mmHg 57%

    28 September, Friday

    Time Temperature Precipitation Wind Pressure Humidity
    00:00 +12°C° 0 mm 1 mps 728 mmHg 57%
    01:00 +12°C° 0 mm 1 mps 728 mmHg 58%
    02:00 +12°C° 0 mm 1 mps 727 mmHg 58%
    03:00 +11°C° 0 mm 1 mps 727 mmHg 59%
    04:00 +11°C° 0 mm 1 mps 727 mmHg 60%
    05:00 +11°C° 0 mm 1 mps 727 mmHg 60%
    06:00 +12°C° 0 mm 1 mps 726 mmHg 60%
    07:00 +12°C° 0 mm 1 mps 726 mmHg 60%
    08:00 +15°C° 0 mm 1 mps 727 mmHg 53%
    09:00 +18°C° 0 mm 1 mps 727 mmHg 46%
    10:00 +21°C° 0 mm 1 mps 727 mmHg 39%
    11:00 +22°C° 0 mm 1 mps 726 mmHg 37%
    12:00 +23°C° 0 mm 1 mps 726 mmHg 34%
    13:00 +24°C° 0 mm 1 mps 726 mmHg 31%
    14:00 +24°C° 0 mm 1 mps 725 mmHg 34%
    15:00 +24°C° 0 mm 1 mps 725 mmHg 36%
    16:00 +23°C° 0 mm 1 mps 725 mmHg 38%
    17:00 +21°C° 0 mm 1 mps 724 mmHg 43%
    18:00 +19°C° 0 mm 1 mps 724 mmHg 48%
    19:00 +15°C° 0 mm 1 mps 724 mmHg 53%
    20:00 +15°C° 0 mm 1 mps 724 mmHg 55%
    21:00 +14°C° 0 mm 1 mps 724 mmHg 56%
    22:00 +14°C° 0 mm 1 mps 724 mmHg 58%
    23:00 +13°C° 0 mm 1 mps 724 mmHg 59%
    Show more